Weather History for Driggs, ID

Change the Weather History Date:

Friday, April 5, 2013

  Actual Average (KRXE) Record (KRXE)
Temperature  
Mean Temperature 39 °F 41 °F  
Max Temperature 45 °F 53 °F 71 °F (2002)
Min Temperature 33 °F 30 °F 18 °F (1983)
Degree Days  
Heating Degree Days 26 24  
Month to date heating degree days 122  
Since 1 July heating degree days 7051  
Cooling Degree Days 0 0  
Month to date cooling degree days 0  
Year to date cooling degree days 0  
Moisture  
Dew Point 36 °F    
Average Humidity 84    
Maximum Humidity 100    
Minimum Humidity 61    
Precipitation  
Precipitation 0.30 in 0.05 in 0.73 in (2006)
Month to date precipitation 0.22  
Year to date precipitation 2.85  
Sea Level Pressure  
Sea Level Pressure 29.89 in    
Wind  
Wind Speed 8 mph (South)    
Max Wind Speed 18 mph    
Max Gust Speed 21 mph    
Visibility 8 miles    
Events Rain , Snow    
T = Trace of Precipitation, MM = Missing Value Source: NWS Daily Summary

Daily Weather History Graph

Daily Weather History Graph

Search for Another Location

Airport:

Trip Planner

Search our weather history database for the weather conditions in past years. The results will help you decide how hot, cold, wet, or windy it might be!

Date:

Astronomy

Apr. 05, 2013 Rise Set
Actual Time 6:58 AM MDT 7:56 PM MDT
Civil Twilight 6:29 AM MDT 8:25 PM MDT
Nautical Twilight 5:54 AM MDT 9:00 PM MDT
Astronomical Twilight 5:17 AM MDT 9:37 PM MDT
Moon 4:16 AM MDT (4/5) 3:16 PM MDT (4/5)
Length of Visible Light 13h 56m
Length of Day
12h 58m
Waning Crescent, 23% of the Moon is Illuminated
Apr 5
Waning Crescent
Apr 10
New
Apr 18
First Quarter
Apr 25
Full
May 2
Last Quarter

Hourly Weather History & Observations

Time (MDT) Temp. Windchill Dew Point Humidity Pressure Visibility Wind Dir Wind Speed Gust Speed Precip Events Conditions
12:56 AM 45.0 °F 41.8 °F 37.9 °F 76% 29.79 in 10.0 mi SE 5.8 mph - N/A   Overcast
1:56 AM 45.0 °F 41.8 °F 37.9 °F 76% 29.80 in 10.0 mi North 5.8 mph - N/A   Overcast
2:56 AM 45.0 °F 41.8 °F 37.9 °F 76% 29.79 in 10.0 mi NW 5.8 mph - 0.00 in Rain Light Rain
3:38 AM 42.8 °F 40.1 °F 39.2 °F 87% 29.96 in 7.0 mi East 4.6 mph - 0.03 in Rain Light Rain
3:45 AM 42.8 °F 40.1 °F 39.2 °F 87% 29.96 in 3.0 mi East 4.6 mph - 0.05 in Rain Light Rain
3:56 AM 41.9 °F - 39.9 °F 93% 29.80 in 2.0 mi Calm Calm - 0.08 in Rain Rain
4:12 AM 42.8 °F 38.6 °F 39.2 °F 87% 29.96 in 3.0 mi SE 6.9 mph - 0.04 in Rain Light Rain
4:20 AM 42.8 °F 40.1 °F 39.2 °F 87% 29.96 in 2.5 mi SSE 4.6 mph - 0.06 in Rain Rain
4:29 AM 42.8 °F - 39.2 °F 87% 29.97 in 5.0 mi Calm Calm - 0.07 in Rain Light Rain
4:56 AM 41.0 °F 34.3 °F 39.9 °F 96% 29.81 in 10.0 mi SSE 11.5 mph - 0.10 in Rain Light Rain
5:56 AM 38.8 °F 33.2 °F 36.0 °F 89% 29.81 in 8.0 mi South 8.1 mph - 0.04 in Rain Light Rain
6:16 AM 39.2 °F 33.0 °F 37.4 °F 93% 29.94 in 10.0 mi SSE 9.2 mph - 0.01 in Rain Light Rain
6:56 AM 39.9 °F 35.1 °F 36.0 °F 86% 29.77 in 10.0 mi South 6.9 mph - 0.01 in   Scattered Clouds
7:56 AM 39.9 °F 35.8 °F 36.9 °F 89% 29.79 in 10.0 mi SSW 5.8 mph - N/A   Mostly Cloudy
8:14 AM 39.2 °F 35.9 °F 37.4 °F 93% 29.92 in 10.0 mi SW 4.6 mph - N/A   Overcast
8:45 AM 39.2 °F 31.6 °F 37.4 °F 93% 29.91 in 10.0 mi South 12.7 mph - N/A   Scattered Clouds
8:56 AM 41.9 °F 35.4 °F 36.9 °F 82% 29.80 in 10.0 mi South 11.5 mph - N/A   Scattered Clouds
9:18 AM 42.8 °F 35.4 °F 37.4 °F 81% 29.93 in 10.0 mi SSE 15.0 mph 20.7 mph N/A   Mostly Cloudy
9:56 AM 41.9 °F 35.4 °F 36.9 °F 82% 29.80 in 10.0 mi South 11.5 mph - N/A   Overcast
10:24 AM 42.8 °F 34.5 °F 37.4 °F 81% 29.92 in 10.0 mi South 18.4 mph - N/A   Scattered Clouds
10:56 AM 43.9 °F 36.8 °F 36.9 °F 76% 29.79 in 10.0 mi SSW 15.0 mph - N/A   Partly Cloudy
11:56 AM 45.0 °F 38.5 °F 34.0 °F 65% 29.81 in 10.0 mi South 13.8 mph - N/A   Overcast
12:56 PM 45.9 °F 39.7 °F 32.9 °F 61% 29.81 in 10.0 mi WSW 13.8 mph - 0.00 in   Mostly Cloudy
1:44 PM 39.2 °F 32.5 °F 33.8 °F 81% 29.94 in 10.0 mi SSW 10.4 mph - 0.01 in Rain Light Rain
1:56 PM 45.0 °F 38.9 °F 34.9 °F 68% 29.81 in 10.0 mi SW 12.7 mph - 0.02 in Rain Light Rain
2:39 PM 39.2 °F 32.5 °F 33.8 °F 81% 29.96 in 10.0 mi WNW 10.4 mph - 0.00 in   Overcast
2:56 PM 36.9 °F 30.1 °F 34.0 °F 89% 29.88 in 10.0 mi NW 9.2 mph - 0.00 in Rain Light Rain
3:08 PM 35.6 °F 28.6 °F 33.8 °F 93% 29.97 in 1.5 mi NW 9.2 mph - 0.01 in Snow Light Snow
3:11 PM 33.8 °F 27.0 °F 32.0 °F 93% 29.97 in 1.0 mi NNW 8.1 mph - 0.01 in   Overcast
3:20 PM 33.8 °F 30.8 °F 33.8 °F 100% 29.97 in 1.2 mi Variable 3.5 mph - 0.01 in Snow Light Snow
3:23 PM 33.8 °F 29.6 °F 33.8 °F 100% 29.97 in 2.5 mi NNE 4.6 mph - 0.01 in Snow Light Snow
3:29 PM 35.6 °F 32.8 °F 33.8 °F 93% 29.97 in 10.0 mi NE 3.5 mph - 0.03 in Snow Light Snow
3:56 PM 36.9 °F 30.7 °F 36.0 °F 97% 29.89 in 10.0 mi East 8.1 mph - 0.05 in   Overcast
4:34 PM 39.2 °F 33.6 °F 37.4 °F 93% 29.96 in 10.0 mi SSE 8.1 mph - 0.00 in   Scattered Clouds
4:56 PM 41.0 °F 35.2 °F 36.9 °F 85% 29.87 in 10.0 mi SSE 9.2 mph - 0.00 in   Partly Cloudy
5:56 PM 39.9 °F 31.8 °F 36.0 °F 86% 29.89 in 10.0 mi South 15.0 mph - N/A   Mostly Cloudy
6:31 PM 39.2 °F 31.2 °F 35.6 °F 87% 29.98 in 6.0 mi SSE 13.8 mph - 0.00 in Rain Light Rain
6:56 PM 39.9 °F 32.1 °F 36.0 °F 86% 29.90 in 10.0 mi SSE 13.8 mph - 0.00 in   Overcast
7:56 PM 39.9 °F 34.5 °F 34.0 °F 79% 29.89 in 10.0 mi SE 8.1 mph - N/A   Mostly Cloudy
8:56 PM 41.0 °F 34.7 °F 32.0 °F 70% 29.88 in 10.0 mi SSE 10.4 mph - N/A   Overcast
9:56 PM 41.0 °F 32.8 °F 30.0 °F 65% 29.91 in 10.0 mi South 16.1 mph - N/A   Mostly Cloudy
10:56 PM 39.9 °F 32.1 °F 30.0 °F 68% 29.91 in 10.0 mi SSE 13.8 mph - N/A   Overcast
11:56 PM 39.9 °F 30.8 °F 29.1 °F 65% 29.89 in 10.0 mi South 18.4 mph - N/A   Overcast